Weather in Korgalzhyn

Kazakhstan     50°35′01″N   70°01′04″E
temp.,
°C
wind,
m/s
gust,
m/s
humid.,
%
clouds,
%
prec.,
mm/h
press.,
hPa
HPBL,
m
23 january, sat
sat2300:00−17sw61196100 0.6 1028468
03:00−17sw61096100 0.5 1028466
06:00−17ssw5996100 0.9 1028301
09:00−17ssw5895100 0.1 1029240
12:00−15wsw469499 0.3 1029382
15:00−16w349497 0.0 1030228
18:00−21wnw339969 0.1 103220
21:00−24nw33987 0.0 103620
24 january, sun
sun2400:00−26nw2310033 0.0 103719
03:00−28wnw2310080 0.0 103919
06:00−27wnw229790 0.0 104020
09:00−27wsw1295100 0.0 104119
12:00−24sw2390100 0.0 1041165
15:00−21ssw238999 0.0 1040235
18:00−20s239398 0.0 104049
21:00−19s359698 0.1 1040107
25 january, mon
mon2500:00−17s359796 0.3 104097
03:00−16ssw359699 0.2 1039136
06:00−15ssw3596100 0.6 1038183
09:00−15ssw349697 0.4 1039109
12:00−13sw459490 0.5 1038306
15:00−11sw479395 0.1 1037354
18:00−11wsw359696 0.3 1036127
21:00−11wsw379695 0.4 1037205
26 january, tue
tue2600:00−12wsw469694 0.8 1036180
03:00−12wsw459687 0.3 1036126
06:00−11wsw469685 0.5 1036118
09:00−10wsw479690 0.3 1037149
12:00−8wsw469590 0.6 1037218
15:00−7wsw459591 0.1 1037254
18:00−8wsw349695 0.2 103762
21:00−9wsw349699 0.1 103858
27 january, wed
wed2700:00−8wsw339696 0.2 103961
03:00−8wsw239696 0.1 103937
06:00−9wsw239795 0.2 103921
09:00−9sw229794 0.1 103921
12:00−7ssw239693 0.1 1039124
15:00−6ssw359591 0.1 1039191
18:00−10sw339576 0.1 103921
21:00−10ssw349587 0.0 104042